When you browse on this site, cookies collect data to enhance your experience and personalize the content and advertising you see.
Visit our Privacy Policy to learn more. By continuing to use the site, you agree to this use of cookies and data.

Meteo pe oră la Salgotarjan

Astăzi, 13 August, Joi

Timp Temperatura Precipitaţii Vânt Presiune Umiditate
00:00 +19°C° 0 mm 1 m/s 733 mmHg 68%
01:00 +19°C° 0 mm 1 m/s 733 mmHg 70%
02:00 +18°C° 0 mm 1 m/s 733 mmHg 72%
03:00 +16°C° 0 mm 0 m/s 733 mmHg 74%
04:00 +16°C° 0 mm 0 m/s 733 mmHg 76%
05:00 +17°C° 0 mm 0 m/s 733 mmHg 73%
06:00 +18°C° 0 mm 0 m/s 733 mmHg 69%
07:00 +20°C° 0 mm 0 m/s 733 mmHg 66%
08:00 +24°C° 0 mm 1 m/s 733 mmHg 60%
09:00 +25°C° 0 mm 1 m/s 733 mmHg 54%
10:00 +27°C° 0 mm 2 m/s 733 mmHg 48%
11:00 +28°C° 0 mm 2 m/s 733 mmHg 46%
12:00 +29°C° 0 mm 2 m/s 733 mmHg 44%
13:00 +30°C° 0 mm 2 m/s 733 mmHg 42%
14:00 +30°C° 0 mm 2 m/s 732 mmHg 42%
15:00 +30°C° 0 mm 2 m/s 732 mmHg 42%
16:00 +30°C° 0 mm 2 m/s 732 mmHg 42%
17:00 +28°C° 0 mm 2 m/s 731 mmHg 47%
18:00 +26°C° 0 mm 1 m/s 731 mmHg 53%
19:00 +24°C° 0 mm 1 m/s 731 mmHg 59%
20:00 +23°C° 0 mm 1 m/s 731 mmHg 60%
21:00 +22°C° 0 mm 1 m/s 731 mmHg 62%
22:00 +21°C° 0 mm 1 m/s 731 mmHg 63%
23:00 +21°C° 0 mm 1 m/s 731 mmHg 65%

Mâine, 14 August, Vineri

Timp Temperatura Precipitaţii Vânt Presiune Umiditate
00:00 +20°C° 0 mm 1 m/s 731 mmHg 68%
01:00 +20°C° 0 mm 1 m/s 731 mmHg 71%
02:00 +19°C° 0 mm 1 m/s 731 mmHg 73%
03:00 +19°C° 0 mm 1 m/s 730 mmHg 75%
04:00 +19°C° 0 mm 1 m/s 730 mmHg 77%
05:00 +20°C° 0 mm 1 m/s 730 mmHg 74%
06:00 +21°C° 0 mm 1 m/s 731 mmHg 71%
07:00 +22°C° 0 mm 1 m/s 731 mmHg 68%
08:00 +24°C° 0 mm 1 m/s 731 mmHg 62%
09:00 +26°C° 0 mm 1 m/s 731 mmHg 55%
10:00 +29°C° 0 mm 1 m/s 731 mmHg 48%
11:00 +29°C° 0 mm 1 m/s 731 mmHg 46%
12:00 +30°C° 0 mm 2 m/s 731 mmHg 44%
13:00 +30°C° 0 mm 2 m/s 730 mmHg 41%
14:00 +30°C° 0 mm 2 m/s 730 mmHg 42%
15:00 +30°C° 0 mm 2 m/s 730 mmHg 43%
16:00 +30°C° 0 mm 2 m/s 730 mmHg 44%
17:00 +28°C° 0 mm 1 m/s 729 mmHg 49%
18:00 +26°C° 0 mm 1 m/s 729 mmHg 54%
19:00 +22°C° 0 mm 0 m/s 729 mmHg 59%
20:00 +23°C° 0 mm 1 m/s 729 mmHg 62%
21:00 +23°C° 0 mm 1 m/s 729 mmHg 65%
22:00 +22°C° 0 mm 1 m/s 729 mmHg 69%
23:00 +22°C° 0.1 mm 1 m/s 729 mmHg 71%

Poimâine, 15 August, Sâmbătă

Timp Temperatura Precipitaţii Vânt Presiune Umiditate
00:00 +21°C° 0.1 mm 1 m/s 729 mmHg 74%
01:00 +21°C° 0.1 mm 1 m/s 729 mmHg 77%
02:00 +21°C° 0 mm 1 m/s 729 mmHg 78%
03:00 +21°C° 0 mm 1 m/s 729 mmHg 79%
04:00 +20°C° 0 mm 1 m/s 729 mmHg 80%
05:00 +21°C° 0 mm 1 m/s 729 mmHg 79%
06:00 +22°C° 0 mm 1 m/s 729 mmHg 78%
07:00 +22°C° 0 mm 1 m/s 729 mmHg 77%
08:00 +23°C° 0.5 mm 1 m/s 729 mmHg 74%
09:00 +24°C° 0.5 mm 1 m/s 729 mmHg 72%
10:00 +23°C° 0.5 mm 0 m/s 730 mmHg 70%
11:00 +22°C° 0.7 mm 0 m/s 730 mmHg 73%
12:00 +22°C° 0.7 mm 0 m/s 729 mmHg 76%
13:00 +21°C° 0.7 mm 0 m/s 729 mmHg 79%
14:00 +23°C° 0.1 mm 1 m/s 729 mmHg 79%
15:00 +23°C° 0.1 mm 1 m/s 729 mmHg 79%
16:00 +23°C° 0.1 mm 1 m/s 729 mmHg 80%
17:00 +22°C° 0 mm 1 m/s 729 mmHg 83%
18:00 +21°C° 0 mm 1 m/s 729 mmHg 86%
19:00 +20°C° 0 mm 1 m/s 729 mmHg 89%
20:00 +20°C° 0 mm 1 m/s 729 mmHg 89%
21:00 +20°C° 0 mm 1 m/s 729 mmHg 90%
22:00 +19°C° 0 mm 1 m/s 729 mmHg 90%
23:00 +19°C° 0 mm 1 m/s 729 mmHg 91%

16 August, Duminică

Timp Temperatura Precipitaţii Vânt Presiune Umiditate
00:00 +19°C° 0 mm 1 m/s 729 mmHg 91%
01:00 +18°C° 0 mm 1 m/s 729 mmHg 91%
02:00 +18°C° 0 mm 1 m/s 729 mmHg 91%
03:00 +18°C° 0 mm 1 m/s 728 mmHg 91%
04:00 +16°C° 0 mm 1 m/s 728 mmHg 91%
05:00 +18°C° 0 mm 1 m/s 729 mmHg 88%
06:00 +19°C° 0 mm 1 m/s 729 mmHg 84%
07:00 +20°C° 0 mm 1 m/s 729 mmHg 81%
08:00 +22°C° 0 mm 1 m/s 730 mmHg 74%
09:00 +23°C° 0 mm 1 m/s 730 mmHg 68%
10:00 +25°C° 0 mm 1 m/s 730 mmHg 62%
11:00 +26°C° 0 mm 1 m/s 730 mmHg 60%
12:00 +26°C° 0 mm 1 m/s 730 mmHg 57%
13:00 +27°C° 0 mm 1 m/s 730 mmHg 55%
14:00 +27°C° 0.3 mm 1 m/s 730 mmHg 57%
15:00 +27°C° 0.3 mm 1 m/s 730 mmHg 59%
16:00 +27°C° 0.3 mm 1 m/s 729 mmHg 61%
17:00 +25°C° 0.2 mm 1 m/s 729 mmHg 68%
18:00 +23°C° 0.2 mm 1 m/s 729 mmHg 74%
19:00 +22°C° 0.2 mm 1 m/s 729 mmHg 81%
20:00 +21°C° 0 mm 1 m/s 729 mmHg 83%
21:00 +20°C° 0 mm 1 m/s 729 mmHg 85%
22:00 +20°C° 0 mm 1 m/s 730 mmHg 88%
23:00 +20°C° 0 mm 1 m/s 729 mmHg 89%

17 August, Luni

Timp Temperatura Precipitaţii Vânt Presiune Umiditate
00:00 +17°C° 0 mm 0 m/s 729 mmHg 90%
01:00 +17°C° 0 mm 0 m/s 729 mmHg 91%
02:00 +17°C° 0.1 mm 0 m/s 729 mmHg 92%
03:00 +16°C° 0.1 mm 0 m/s 729 mmHg 93%
04:00 +16°C° 0.1 mm 0 m/s 729 mmHg 94%
05:00 +19°C° 0.1 mm 1 m/s 729 mmHg 91%
06:00 +20°C° 0.1 mm 1 m/s 729 mmHg 89%
07:00 +21°C° 0.1 mm 1 m/s 730 mmHg 86%
08:00 +23°C° 0.2 mm 1 m/s 730 mmHg 79%
09:00 +25°C° 0.2 mm 1 m/s 730 mmHg 72%
10:00 +27°C° 0.2 mm 1 m/s 730 mmHg 65%
11:00 +28°C° 1.3 mm 1 m/s 729 mmHg 63%
12:00 +28°C° 1.3 mm 2 m/s 729 mmHg 61%
13:00 +29°C° 1.3 mm 2 m/s 729 mmHg 60%
14:00 +29°C° 1.1 mm 2 m/s 728 mmHg 60%
15:00 +29°C° 1.1 mm 2 m/s 728 mmHg 61%
16:00 +29°C° 1.1 mm 2 m/s 727 mmHg 61%
17:00 +27°C° 0.4 mm 1 m/s 727 mmHg 66%
18:00 +26°C° 0.4 mm 1 m/s 727 mmHg 70%
19:00 +24°C° 0.4 mm 1 m/s 726 mmHg 75%
20:00 +23°C° 1 mm 1 m/s 726 mmHg 79%
21:00 +22°C° 1 mm 1 m/s 726 mmHg 83%
22:00 +21°C° 1 mm 1 m/s 726 mmHg 86%
23:00 +20°C° 0.3 mm 1 m/s 726 mmHg 87%

18 August, Marţi

Timp Temperatura Precipitaţii Vânt Presiune Umiditate
00:00 +20°C° 0.3 mm 1 m/s 726 mmHg 88%
01:00 +20°C° 0.3 mm 1 m/s 726 mmHg 89%
02:00 +18°C° 0.9 mm 0 m/s 725 mmHg 90%
03:00 +18°C° 0.9 mm 0 m/s 725 mmHg 91%
04:00 +18°C° 0.9 mm 0 m/s 725 mmHg 92%
05:00 +18°C° 0.4 mm 0 m/s 725 mmHg 91%
06:00 +19°C° 0.4 mm 0 m/s 725 mmHg 90%
07:00 +19°C° 0.4 mm 0 m/s 725 mmHg 89%
08:00 +22°C° 0 mm 1 m/s 725 mmHg 85%
09:00 +23°C° 0 mm 1 m/s 726 mmHg 82%
10:00 +24°C° 0 mm 2 m/s 726 mmHg 78%
11:00 +25°C° 0.9 mm 2 m/s 726 mmHg 77%
12:00 +25°C° 0.9 mm 2 m/s 726 mmHg 77%
13:00 +26°C° 0.9 mm 2 m/s 725 mmHg 76%
14:00 +25°C° 0.7 mm 2 m/s 725 mmHg 76%
15:00 +25°C° 0.7 mm 2 m/s 725 mmHg 76%
16:00 +25°C° 0.7 mm 2 m/s 725 mmHg 77%
17:00 +24°C° 0.1 mm 2 m/s 725 mmHg 80%
18:00 +23°C° 0.1 mm 2 m/s 725 mmHg 83%
19:00 +20°C° 0.1 mm 2 m/s 725 mmHg 86%
20:00 +20°C° 0.1 mm 2 m/s 725 mmHg 88%
21:00 +19°C° 0.1 mm 2 m/s 726 mmHg 90%
22:00 +19°C° 0.1 mm 1 m/s 726 mmHg 92%
23:00 +19°C° 0.1 mm 1 m/s 726 mmHg 92%
Arată mai mult